Year,Month,Day,Hour,Minute,Value (Times are PST for windgust in km/hr)
2009,04,03,00,00,41.80
2009,04,03,00,01,45.10
2009,04,03,00,02,33.80
2009,04,03,00,03,38.60
2009,04,03,00,04,27.40
2009,04,03,00,05,30.60
2009,04,03,00,06,24.20
2009,04,03,00,07,22.50
2009,04,03,00,08,25.70
2009,04,03,00,09,30.60
2009,04,03,00,10,33.80
2009,04,03,00,11,32.20
2009,04,03,00,12,20.90
2009,04,03,00,13,32.20
2009,04,03,00,14,29.00
2009,04,03,00,15,27.40
2009,04,03,00,16,30.60
2009,04,03,00,17,33.80
2009,04,03,00,18,20.90
2009,04,03,00,19,27.40
2009,04,03,00,20,33.80
2009,04,03,00,21,38.60
2009,04,03,00,22,45.10
2009,04,03,00,23,38.60
2009,04,03,00,24,32.20
2009,04,03,00,25,30.60
2009,04,03,00,26,33.80
2009,04,03,00,27,30.60
2009,04,03,00,28,20.90
2009,04,03,00,29,22.50
2009,04,03,00,30,27.40
2009,04,03,00,31,37.00
2009,04,03,00,32,29.00
2009,04,03,00,33,33.80
2009,04,03,00,34,16.10
2009,04,03,00,35,14.50
2009,04,03,00,36,25.70
2009,04,03,00,37,41.80
2009,04,03,00,38,40.20
2009,04,03,00,39,24.20
2009,04,03,00,40,22.50
2009,04,03,00,41,33.80
2009,04,03,00,42,32.20
2009,04,03,00,43,25.70
2009,04,03,00,44,35.40
2009,04,03,00,45,29.00
2009,04,03,00,46,35.40
2009,04,03,00,47,19.30
2009,04,03,00,48,24.20
2009,04,03,00,49,33.80
2009,04,03,00,50,41.80
2009,04,03,00,51,49.90
2009,04,03,00,52,38.60
2009,04,03,00,53,48.30
2009,04,03,00,54,56.30
2009,04,03,00,55,30.60
2009,04,03,00,56,27.40
2009,04,03,00,57,19.30
2009,04,03,00,58,38.60
2009,04,03,00,59,11.30
2009,04,03,01,00,33.80
2009,04,03,01,01,41.80
2009,04,03,01,02,16.10
2009,04,03,01,03,27.40
2009,04,03,01,04,37.00
2009,04,03,01,05,40.20
2009,04,03,01,06,48.30
2009,04,03,01,07,35.40
2009,04,03,01,08,25.70
2009,04,03,01,09,38.60
2009,04,03,01,10,37.00
2009,04,03,01,11,25.70
2009,04,03,01,12,29.00
2009,04,03,01,13,24.20
2009,04,03,01,14,30.60
2009,04,03,01,15,32.20
2009,04,03,01,16,43.50
2009,04,03,01,17,37.00
2009,04,03,01,18,32.20
2009,04,03,01,19,25.70
2009,04,03,01,20,19.30
2009,04,03,01,21,24.20
2009,04,03,01,22,33.80
2009,04,03,01,23,29.00
2009,04,03,01,24,25.70
2009,04,03,01,25,43.50
2009,04,03,01,26,45.10
2009,04,03,01,27,35.40
2009,04,03,01,28,25.70
2009,04,03,01,29,16.10
2009,04,03,01,30,19.30
2009,04,03,01,31,20.90
2009,04,03,01,32,17.70
2009,04,03,01,33,27.40
2009,04,03,01,34,40.20
2009,04,03,01,35,35.40
2009,04,03,01,36,38.60
2009,04,03,01,37,35.40
2009,04,03,01,38,45.10
2009,04,03,01,39,30.60
2009,04,03,01,40,27.40
2009,04,03,01,41,33.80
2009,04,03,01,42,37.00
2009,04,03,01,43,48.30
2009,04,03,01,44,24.20
2009,04,03,01,45,19.30
2009,04,03,01,46,19.30
2009,04,03,01,47,30.60
2009,04,03,01,48,27.40
2009,04,03,01,49,24.20
2009,04,03,01,50,22.50
2009,04,03,01,51,29.00
2009,04,03,01,52,40.20
2009,04,03,01,53,22.50
2009,04,03,01,54,24.20
2009,04,03,01,55,25.70
2009,04,03,01,56,17.70
2009,04,03,01,57,32.20
2009,04,03,01,58,14.50
2009,04,03,01,59,20.90
2009,04,03,02,00,37.00
2009,04,03,02,01,20.90
2009,04,03,02,02,16.10
2009,04,03,02,03,22.50
2009,04,03,02,04,24.20
2009,04,03,02,05,14.50
2009,04,03,02,06,16.10
2009,04,03,02,07,24.20
2009,04,03,02,08,29.00
2009,04,03,02,09,22.50
2009,04,03,02,10,29.00
2009,04,03,02,11,25.70
2009,04,03,02,12,9.60
2009,04,03,02,13,32.20
2009,04,03,02,14,22.50
2009,04,03,02,15,29.00
2009,04,03,02,16,12.90
2009,04,03,02,17,30.60
2009,04,03,02,18,24.20
2009,04,03,02,19,25.70
2009,04,03,02,20,46.70
2009,04,03,02,21,30.60
2009,04,03,02,22,22.50
2009,04,03,02,23,43.50
2009,04,03,02,24,29.00
2009,04,03,02,25,29.00
2009,04,03,02,26,30.60
2009,04,03,02,27,37.00
2009,04,03,02,28,24.20
2009,04,03,02,29,32.20
2009,04,03,02,30,33.80
2009,04,03,02,31,25.70
2009,04,03,02,32,29.00
2009,04,03,02,33,32.20
2009,04,03,02,34,40.20
2009,04,03,02,35,32.20
2009,04,03,02,36,32.20
2009,04,03,02,37,40.20
2009,04,03,02,38,29.00
2009,04,03,02,39,17.70
2009,04,03,02,40,20.90
2009,04,03,02,41,25.70
2009,04,03,02,42,24.20
2009,04,03,02,43,27.40
2009,04,03,02,44,27.40
2009,04,03,02,45,20.90
2009,04,03,02,46,17.70
2009,04,03,02,47,29.00
2009,04,03,02,48,35.40
2009,04,03,02,49,19.30
2009,04,03,02,50,27.40
2009,04,03,02,51,20.90
2009,04,03,02,52,35.40
2009,04,03,02,53,24.20
2009,04,03,02,54,24.20
2009,04,03,02,55,20.90
2009,04,03,02,56,20.90
2009,04,03,02,57,14.50
2009,04,03,02,58,22.50
2009,04,03,02,59,25.70
2009,04,03,03,00,20.90
2009,04,03,03,01,16.10
2009,04,03,03,02,16.10
2009,04,03,03,03,14.50
2009,04,03,03,04,17.70
2009,04,03,03,05,22.50
2009,04,03,03,06,20.90
2009,04,03,03,07,29.00
2009,04,03,03,08,38.60
2009,04,03,03,09,27.40
2009,04,03,03,10,30.60
2009,04,03,03,11,33.80
2009,04,03,03,12,30.60
2009,04,03,03,13,24.20
2009,04,03,03,14,32.20
2009,04,03,03,15,35.40
2009,04,03,03,16,51.50
2009,04,03,03,17,20.90
2009,04,03,03,18,38.60
2009,04,03,03,19,32.20
2009,04,03,03,20,35.40
2009,04,03,03,21,37.00
2009,04,03,03,22,46.70
2009,04,03,03,23,30.60
2009,04,03,03,24,33.80
2009,04,03,03,25,43.50
2009,04,03,03,26,43.50
2009,04,03,03,27,32.20
2009,04,03,03,28,30.60
2009,04,03,03,29,30.60
2009,04,03,03,30,22.50
2009,04,03,03,31,43.50
2009,04,03,03,32,49.90
2009,04,03,03,33,43.50
2009,04,03,03,34,37.00
2009,04,03,03,35,54.70
2009,04,03,03,36,30.60
2009,04,03,03,37,29.00
2009,04,03,03,38,30.60
2009,04,03,03,39,19.30
2009,04,03,03,40,53.10
2009,04,03,03,41,32.20
2009,04,03,03,42,32.20
2009,04,03,03,43,38.60
2009,04,03,03,44,41.80
2009,04,03,03,45,35.40
2009,04,03,03,46,35.40
2009,04,03,03,47,51.50
2009,04,03,03,48,37.00
2009,04,03,03,49,29.00
2009,04,03,03,50,29.00
2009,04,03,03,51,25.70
2009,04,03,03,52,27.40
2009,04,03,03,53,25.70
2009,04,03,03,54,40.20
2009,04,03,03,55,25.70
2009,04,03,03,56,30.60
2009,04,03,03,57,37.00
2009,04,03,03,58,29.00
2009,04,03,03,59,38.60
2009,04,03,04,00,35.40
2009,04,03,04,01,29.00
2009,04,03,04,02,32.20
2009,04,03,04,03,48.30
2009,04,03,04,04,40.20
2009,04,03,04,05,32.20
2009,04,03,04,06,33.80
2009,04,03,04,07,40.20
2009,04,03,04,08,33.80
2009,04,03,04,09,27.40
2009,04,03,04,10,41.80
2009,04,03,04,11,40.20
2009,04,03,04,12,51.50
2009,04,03,04,13,30.60
2009,04,03,04,14,22.50
2009,04,03,04,15,27.40
2009,04,03,04,16,20.90
2009,04,03,04,17,22.50
2009,04,03,04,18,48.30
2009,04,03,04,19,38.60
2009,04,03,04,20,37.00
2009,04,03,04,21,30.60
2009,04,03,04,22,30.60
2009,04,03,04,23,32.20
2009,04,03,04,24,37.00
2009,04,03,04,25,17.70
2009,04,03,04,26,27.40
2009,04,03,04,27,46.70
2009,04,03,04,28,38.60
2009,04,03,04,29,35.40
2009,04,03,04,30,27.40
2009,04,03,04,31,27.40
2009,04,03,04,32,35.40
2009,04,03,04,33,43.50
2009,04,03,04,34,32.20
2009,04,03,04,35,27.40
2009,04,03,04,36,27.40
2009,04,03,04,37,43.50
2009,04,03,04,38,22.50
2009,04,03,04,39,33.80
2009,04,03,04,40,32.20
2009,04,03,04,41,41.80
2009,04,03,04,42,27.40
2009,04,03,04,43,38.60
2009,04,03,04,44,35.40
2009,04,03,04,45,49.90
2009,04,03,04,46,32.20
2009,04,03,04,47,32.20
2009,04,03,04,48,38.60
2009,04,03,04,49,40.20
2009,04,03,04,50,30.60
2009,04,03,04,51,25.70
2009,04,03,04,52,19.30
2009,04,03,04,53,29.00
2009,04,03,04,54,29.00
2009,04,03,04,55,29.00
2009,04,03,04,56,35.40
2009,04,03,04,57,54.70
2009,04,03,04,58,33.80
2009,04,03,04,59,33.80
2009,04,03,05,00,33.80
2009,04,03,05,01,38.60
2009,04,03,05,02,40.20
2009,04,03,05,03,41.80
2009,04,03,05,04,30.60
2009,04,03,05,05,45.10
2009,04,03,05,06,46.70
2009,04,03,05,07,43.50
2009,04,03,05,08,33.80
2009,04,03,05,09,45.10
2009,04,03,05,10,37.00
2009,04,03,05,11,33.80
2009,04,03,05,12,25.70
2009,04,03,05,13,35.40
2009,04,03,05,14,25.70
2009,04,03,05,15,29.00
2009,04,03,05,16,27.40
2009,04,03,05,17,22.50
2009,04,03,05,18,29.00
2009,04,03,05,19,27.40
2009,04,03,05,20,45.10
2009,04,03,05,21,41.80
2009,04,03,05,22,41.80
2009,04,03,05,23,33.80
2009,04,03,05,24,43.50
2009,04,03,05,25,40.20
2009,04,03,05,26,27.40
2009,04,03,05,27,32.20
2009,04,03,05,28,30.60
2009,04,03,05,29,40.20
2009,04,03,05,30,17.70
2009,04,03,05,31,45.10
2009,04,03,05,32,30.60
2009,04,03,05,33,32.20
2009,04,03,05,34,32.20
2009,04,03,05,35,20.90
2009,04,03,05,36,35.40
2009,04,03,05,37,35.40
2009,04,03,05,38,32.20
2009,04,03,05,39,20.90
2009,04,03,05,40,20.90
2009,04,03,05,41,35.40
2009,04,03,05,42,32.20
2009,04,03,05,43,29.00
2009,04,03,05,44,24.20
2009,04,03,05,45,30.60
2009,04,03,05,46,20.90
2009,04,03,05,47,33.80
2009,04,03,05,48,17.70
2009,04,03,05,49,30.60
2009,04,03,05,50,24.20
2009,04,03,05,51,35.40
2009,04,03,05,52,25.70
2009,04,03,05,53,30.60
2009,04,03,05,54,30.60
2009,04,03,05,55,32.20
2009,04,03,05,56,24.20
2009,04,03,05,57,33.80
2009,04,03,05,58,27.40
2009,04,03,05,59,17.70
2009,04,03,06,00,32.20
2009,04,03,06,01,29.00
2009,04,03,06,02,25.70
2009,04,03,06,03,25.70
2009,04,03,06,04,27.40
2009,04,03,06,05,22.50
2009,04,03,06,06,38.60
2009,04,03,06,07,20.90
2009,04,03,06,08,16.10
2009,04,03,06,09,38.60
2009,04,03,06,10,29.00
2009,04,03,06,11,30.60
2009,04,03,06,12,22.50
2009,04,03,06,13,16.10
2009,04,03,06,14,20.90
2009,04,03,06,15,16.10
2009,04,03,06,16,17.70
2009,04,03,06,17,9.60
2009,04,03,06,18,32.20
2009,04,03,06,19,24.20
2009,04,03,06,20,27.40
2009,04,03,06,21,27.40
2009,04,03,06,22,27.40
2009,04,03,06,23,32.20
2009,04,03,06,24,16.10
2009,04,03,06,25,22.50
2009,04,03,06,26,32.20
2009,04,03,06,27,33.80
2009,04,03,06,28,40.20
2009,04,03,06,29,33.80
2009,04,03,06,30,17.70
2009,04,03,06,31,9.60
2009,04,03,06,32,9.60
2009,04,03,06,33,19.30
2009,04,03,06,34,19.30
2009,04,03,06,35,27.40
2009,04,03,06,36,16.10
2009,04,03,06,37,24.20
2009,04,03,06,38,33.80
2009,04,03,06,39,33.80
2009,04,03,06,40,16.10
2009,04,03,06,41,19.30
2009,04,03,06,42,27.40
2009,04,03,06,43,29.00
2009,04,03,06,44,27.40
2009,04,03,06,45,25.70
2009,04,03,06,46,33.80
2009,04,03,06,47,32.20
2009,04,03,06,48,20.90
2009,04,03,06,49,25.70
2009,04,03,06,50,30.60
2009,04,03,06,51,22.50
2009,04,03,06,52,24.20
2009,04,03,06,53,8.10
2009,04,03,06,54,24.20
2009,04,03,06,55,11.30
2009,04,03,06,56,20.90
2009,04,03,06,57,24.20
2009,04,03,06,58,16.10
2009,04,03,06,59,30.60
2009,04,03,07,00,22.50
2009,04,03,07,01,27.40
2009,04,03,07,02,33.80
2009,04,03,07,03,32.20
2009,04,03,07,04,20.90
2009,04,03,07,05,22.50
2009,04,03,07,06,16.10
2009,04,03,07,07,11.30
2009,04,03,07,08,16.10
2009,04,03,07,09,14.50
2009,04,03,07,10,16.10
2009,04,03,07,11,27.40
2009,04,03,07,12,25.70
2009,04,03,07,13,17.70
2009,04,03,07,14,24.20
2009,04,03,07,15,24.20
2009,04,03,07,16,22.50
2009,04,03,07,17,25.70
2009,04,03,07,18,22.50
2009,04,03,07,19,19.30
2009,04,03,07,20,19.30
2009,04,03,07,21,25.70
2009,04,03,07,22,17.70
2009,04,03,07,23,27.40
2009,04,03,07,24,24.20
2009,04,03,07,25,19.30
2009,04,03,07,26,27.40
2009,04,03,07,27,20.90
2009,04,03,07,28,30.60
2009,04,03,07,29,25.70
2009,04,03,07,30,20.90
2009,04,03,07,31,29.00
2009,04,03,07,32,17.70
2009,04,03,07,33,9.60
2009,04,03,07,34,11.30
2009,04,03,07,35,11.30
2009,04,03,07,36,14.50
2009,04,03,07,37,25.70
2009,04,03,07,38,27.40
2009,04,03,07,39,24.20
2009,04,03,07,40,30.60
2009,04,03,07,41,24.20
2009,04,03,07,42,19.30
2009,04,03,07,43,29.00
2009,04,03,07,44,27.40
2009,04,03,07,45,29.00
2009,04,03,07,46,19.30
2009,04,03,07,47,16.10
2009,04,03,07,48,17.70
2009,04,03,07,49,11.30
2009,04,03,07,50,8.10
2009,04,03,07,51,14.50
2009,04,03,07,52,37.00
2009,04,03,07,53,14.50
2009,04,03,07,54,20.90
2009,04,03,07,55,20.90
2009,04,03,07,56,22.50
2009,04,03,07,57,9.60
2009,04,03,07,58,16.10
2009,04,03,07,59,16.10
2009,04,03,08,00,29.00
2009,04,03,08,01,20.90
2009,04,03,08,02,19.30
2009,04,03,08,03,20.90
2009,04,03,08,04,24.20
2009,04,03,08,05,8.10
2009,04,03,08,06,25.70
2009,04,03,08,07,24.20
2009,04,03,08,08,27.40
2009,04,03,08,09,25.70
2009,04,03,08,10,24.20
2009,04,03,08,11,20.90
2009,04,03,08,12,27.40
2009,04,03,08,13,25.70
2009,04,03,08,14,12.90
2009,04,03,08,15,19.30
2009,04,03,08,16,24.20
2009,04,03,08,17,30.60
2009,04,03,08,18,20.90
2009,04,03,08,19,25.70
2009,04,03,08,20,24.20
2009,04,03,08,21,17.70
2009,04,03,08,22,19.30
2009,04,03,08,23,16.10
2009,04,03,08,24,19.30
2009,04,03,08,25,11.30
2009,04,03,08,26,32.20
2009,04,03,08,27,16.10
2009,04,03,08,28,22.50
2009,04,03,08,29,17.70
2009,04,03,08,30,30.60
2009,04,03,08,31,22.50
2009,04,03,08,32,17.70
2009,04,03,08,33,11.30
2009,04,03,08,34,32.20
2009,04,03,08,35,20.90
2009,04,03,08,36,22.50
2009,04,03,08,37,20.90
2009,04,03,08,38,20.90
2009,04,03,08,39,19.30
2009,04,03,08,40,16.10
2009,04,03,08,41,24.20
2009,04,03,08,42,41.80
2009,04,03,08,43,24.20
2009,04,03,08,44,27.40
2009,04,03,08,45,29.00
2009,04,03,08,46,24.20
2009,04,03,08,47,22.50
2009,04,03,08,48,25.70
2009,04,03,08,49,19.30
2009,04,03,08,50,22.50
2009,04,03,08,51,22.50
2009,04,03,08,52,24.20
2009,04,03,08,53,16.10
2009,04,03,08,54,9.60
2009,04,03,08,55,22.50
2009,04,03,08,56,22.50
2009,04,03,08,57,9.60
2009,04,03,08,58,16.10
2009,04,03,08,59,11.30
2009,04,03,09,00,20.90
2009,04,03,09,01,14.50
2009,04,03,09,02,16.10
2009,04,03,09,03,17.70
2009,04,03,09,04,25.70
2009,04,03,09,05,14.50
2009,04,03,09,06,33.80
2009,04,03,09,07,17.70
2009,04,03,09,08,17.70
2009,04,03,09,09,19.30
2009,04,03,09,10,20.90
2009,04,03,09,11,17.70
2009,04,03,09,12,17.70
2009,04,03,09,13,19.30
2009,04,03,09,14,19.30
2009,04,03,09,15,9.60
2009,04,03,09,16,22.50
2009,04,03,09,17,16.10
2009,04,03,09,18,25.70
2009,04,03,09,19,17.70
2009,04,03,09,20,20.90
2009,04,03,09,21,22.50
2009,04,03,09,22,20.90
2009,04,03,09,23,32.20
2009,04,03,09,24,29.00
2009,04,03,09,25,32.20
2009,04,03,09,26,22.50
2009,04,03,09,27,20.90
2009,04,03,09,28,16.10
2009,04,03,09,29,20.90
2009,04,03,09,30,16.10
2009,04,03,09,31,27.40
2009,04,03,09,32,25.70
2009,04,03,09,33,9.60
2009,04,03,09,34,22.50
2009,04,03,09,35,22.50
2009,04,03,09,36,9.60
2009,04,03,09,37,16.10
2009,04,03,09,38,22.50
2009,04,03,09,39,11.30
2009,04,03,09,40,9.60
2009,04,03,09,41,27.40
2009,04,03,09,42,22.50
2009,04,03,09,43,19.30
2009,04,03,09,44,16.10
2009,04,03,09,45,24.20
2009,04,03,09,46,16.10
2009,04,03,09,47,17.70
2009,04,03,09,48,19.30
2009,04,03,09,49,25.70
2009,04,03,09,50,20.90
2009,04,03,09,51,19.30
2009,04,03,09,52,17.70
2009,04,03,09,53,25.70
2009,04,03,09,54,33.80
2009,04,03,09,55,19.30
2009,04,03,09,56,8.10
2009,04,03,09,57,11.30
2009,04,03,09,58,22.50
2009,04,03,09,59,17.70
2009,04,03,10,00,17.70
2009,04,03,10,01,14.50
2009,04,03,10,02,14.50
2009,04,03,10,03,8.10
2009,04,03,10,04,12.90
2009,04,03,10,05,19.30
2009,04,03,10,06,24.20
2009,04,03,10,07,32.20
2009,04,03,10,08,24.20
2009,04,03,10,09,22.50
2009,04,03,10,10,12.90
2009,04,03,10,11,29.00
2009,04,03,10,12,9.60
2009,04,03,10,13,20.90
2009,04,03,10,14,22.50
2009,04,03,10,15,22.50
2009,04,03,10,16,22.50
2009,04,03,10,17,19.30
2009,04,03,10,18,22.50
2009,04,03,10,19,25.70
2009,04,03,10,20,22.50
2009,04,03,10,21,20.90
2009,04,03,10,22,17.70
2009,04,03,10,23,25.70
2009,04,03,10,24,17.70
2009,04,03,10,25,20.90
2009,04,03,10,26,19.30
2009,04,03,10,27,9.60
2009,04,03,10,28,22.50
2009,04,03,10,29,25.70
2009,04,03,10,30,29.00
2009,04,03,10,31,24.20
2009,04,03,10,32,22.50
2009,04,03,10,33,24.20
2009,04,03,10,34,25.70
2009,04,03,10,35,25.70
2009,04,03,10,36,27.40
2009,04,03,10,37,11.30
2009,04,03,10,38,11.30
2009,04,03,10,39,24.20
2009,04,03,10,40,25.70
2009,04,03,10,41,20.90
2009,04,03,10,42,25.70
2009,04,03,10,43,22.50
2009,04,03,10,44,9.60
2009,04,03,10,45,27.40
2009,04,03,10,46,17.70
2009,04,03,10,47,11.30
2009,04,03,10,48,27.40
2009,04,03,10,49,17.70
2009,04,03,10,50,22.50
2009,04,03,10,51,17.70
2009,04,03,10,52,16.10
2009,04,03,10,53,20.90
2009,04,03,10,54,22.50
2009,04,03,10,55,17.70
2009,04,03,10,56,8.10
2009,04,03,10,57,16.10
2009,04,03,10,58,11.30
2009,04,03,10,59,14.50
2009,04,03,11,00,19.30
2009,04,03,11,01,11.30
2009,04,03,11,02,8.10
2009,04,03,11,03,17.70
2009,04,03,11,04,17.70
2009,04,03,11,05,22.50
2009,04,03,11,06,17.70
2009,04,03,11,07,14.50
2009,04,03,11,08,24.20
2009,04,03,11,09,9.60
2009,04,03,11,10,17.70
2009,04,03,11,11,20.90
2009,04,03,11,12,14.50
2009,04,03,11,13,11.30
2009,04,03,11,14,20.90
2009,04,03,11,15,19.30
2009,04,03,11,16,9.60
2009,04,03,11,17,11.30
2009,04,03,11,18,19.30
2009,04,03,11,19,6.40
2009,04,03,11,20,22.50
2009,04,03,11,21,22.50
2009,04,03,11,22,25.70
2009,04,03,11,23,17.70
2009,04,03,11,24,14.50
2009,04,03,11,25,11.30
2009,04,03,11,26,16.10
2009,04,03,11,27,24.20
2009,04,03,11,28,24.20
2009,04,03,11,29,17.70
2009,04,03,11,30,27.40
2009,04,03,11,31,11.30
2009,04,03,11,32,17.70
2009,04,03,11,33,9.60
2009,04,03,11,34,8.10
2009,04,03,11,35,14.50
2009,04,03,11,36,16.10
2009,04,03,11,37,4.80
2009,04,03,11,38,16.10
2009,04,03,11,39,25.70
2009,04,03,11,40,16.10
2009,04,03,11,41,22.50
2009,04,03,11,42,22.50
2009,04,03,11,43,17.70
2009,04,03,11,44,20.90
2009,04,03,11,45,17.70
2009,04,03,11,46,27.40
2009,04,03,11,47,22.50
2009,04,03,11,48,12.90
2009,04,03,11,49,20.90
2009,04,03,11,50,20.90
2009,04,03,11,51,17.70
2009,04,03,11,52,11.30
2009,04,03,11,53,11.30
2009,04,03,11,54,11.30
2009,04,03,11,55,20.90
2009,04,03,11,56,20.90
2009,04,03,11,57,19.30
2009,04,03,11,58,12.90
2009,04,03,11,59,16.10
2009,04,03,12,00,20.90
2009,04,03,12,01,20.90
2009,04,03,12,02,20.90
2009,04,03,12,03,11.30
2009,04,03,12,04,16.10
2009,04,03,12,05,20.90
2009,04,03,12,06,20.90
2009,04,03,12,07,24.20
2009,04,03,12,08,17.70
2009,04,03,12,09,17.70
2009,04,03,12,10,17.70
2009,04,03,12,11,19.30
2009,04,03,12,12,17.70
2009,04,03,12,13,20.90
2009,04,03,12,14,11.30
2009,04,03,12,15,16.10
2009,04,03,12,16,19.30
2009,04,03,12,17,19.30
2009,04,03,12,18,19.30
2009,04,03,12,19,22.50
2009,04,03,12,20,17.70
2009,04,03,12,21,17.70
2009,04,03,12,22,16.10
2009,04,03,12,23,16.10
2009,04,03,12,24,16.10
2009,04,03,12,25,17.70
2009,04,03,12,26,20.90
2009,04,03,12,27,16.10
2009,04,03,12,28,11.30
2009,04,03,12,29,4.80
2009,04,03,12,30,14.50
2009,04,03,12,31,16.10
2009,04,03,12,32,11.30
2009,04,03,12,33,14.50
2009,04,03,12,34,14.50
2009,04,03,12,35,17.70
2009,04,03,12,36,14.50
2009,04,03,12,37,16.10
2009,04,03,12,38,16.10
2009,04,03,12,39,11.30
2009,04,03,12,40,14.50
2009,04,03,12,41,8.10
2009,04,03,12,42,8.10
2009,04,03,12,43,11.30
2009,04,03,12,44,12.90
2009,04,03,12,45,17.70
2009,04,03,12,46,16.10
2009,04,03,12,47,24.20
2009,04,03,12,48,22.50
2009,04,03,12,49,19.30
2009,04,03,12,50,22.50
2009,04,03,12,51,20.90
2009,04,03,12,52,17.70
2009,04,03,12,53,22.50
2009,04,03,12,54,22.50
2009,04,03,12,55,17.70
2009,04,03,12,56,22.50
2009,04,03,12,57,11.30
2009,04,03,12,58,25.70
2009,04,03,12,59,19.30
2009,04,03,13,00,19.30
2009,04,03,13,01,11.30
2009,04,03,13,02,14.50
2009,04,03,13,03,22.50
2009,04,03,13,04,6.40
2009,04,03,13,05,20.90
2009,04,03,13,06,17.70
2009,04,03,13,07,16.10
2009,04,03,13,08,6.40
2009,04,03,13,09,11.30
2009,04,03,13,10,20.90
2009,04,03,13,11,19.30
2009,04,03,13,12,20.90
2009,04,03,13,13,19.30
2009,04,03,13,14,16.10
2009,04,03,13,15,11.30
2009,04,03,13,16,22.50
2009,04,03,13,17,19.30
2009,04,03,13,18,17.70
2009,04,03,13,19,17.70
2009,04,03,13,20,20.90
2009,04,03,13,21,11.30
2009,04,03,13,22,14.50
2009,04,03,13,23,9.60
2009,04,03,13,24,27.40
2009,04,03,13,25,19.30
2009,04,03,13,26,14.50
2009,04,03,13,27,14.50
2009,04,03,13,28,11.30
2009,04,03,13,29,24.20
2009,04,03,13,30,9.60
2009,04,03,13,31,22.50
2009,04,03,13,32,22.50
2009,04,03,13,33,16.10
2009,04,03,13,34,19.30
2009,04,03,13,35,17.70
2009,04,03,13,36,19.30
2009,04,03,13,37,17.70
2009,04,03,13,38,9.60
2009,04,03,13,39,17.70
2009,04,03,13,40,17.70
2009,04,03,13,41,14.50
2009,04,03,13,42,8.10
2009,04,03,13,43,12.90
2009,04,03,13,44,11.30
2009,04,03,13,45,11.30
2009,04,03,13,46,8.10
2009,04,03,13,47,6.40
2009,04,03,13,48,11.30
2009,04,03,13,49,14.50
2009,04,03,13,50,17.70
2009,04,03,13,51,20.90
2009,04,03,13,52,17.70
2009,04,03,13,53,17.70
2009,04,03,13,54,16.10
2009,04,03,13,55,20.90
2009,04,03,13,56,12.90
2009,04,03,13,57,9.60
2009,04,03,13,58,14.50
2009,04,03,13,59,6.40
2009,04,03,14,00,17.70
2009,04,03,14,01,17.70
2009,04,03,14,02,9.60
2009,04,03,14,03,9.60
2009,04,03,14,04,14.50
2009,04,03,14,05,19.30
2009,04,03,14,06,12.90
2009,04,03,14,07,14.50
2009,04,03,14,08,14.50
2009,04,03,14,09,19.30
2009,04,03,14,10,17.70
2009,04,03,14,11,16.10
2009,04,03,14,12,11.30
2009,04,03,14,13,17.70
2009,04,03,14,14,8.10
2009,04,03,14,15,19.30
2009,04,03,14,16,17.70
2009,04,03,14,17,19.30
2009,04,03,14,18,9.60
2009,04,03,14,19,14.50
2009,04,03,14,20,16.10
2009,04,03,14,21,11.30
2009,04,03,14,22,17.70
2009,04,03,14,23,16.10
2009,04,03,14,24,20.90
2009,04,03,14,25,12.90
2009,04,03,14,26,17.70
2009,04,03,14,27,17.70
2009,04,03,14,28,16.10
2009,04,03,14,29,20.90
2009,04,03,14,30,8.10
2009,04,03,14,31,16.10
2009,04,03,14,32,17.70
2009,04,03,14,33,16.10
2009,04,03,14,34,17.70
2009,04,03,14,35,11.30
2009,04,03,14,36,11.30
2009,04,03,14,37,11.30
2009,04,03,14,38,9.60
2009,04,03,14,39,16.10
2009,04,03,14,40,19.30
2009,04,03,14,41,17.70
2009,04,03,14,42,17.70
2009,04,03,14,43,14.50
2009,04,03,14,44,16.10
2009,04,03,14,45,11.30
2009,04,03,14,46,14.50
2009,04,03,14,47,19.30
2009,04,03,14,48,14.50
2009,04,03,14,49,19.30
2009,04,03,14,50,17.70
2009,04,03,14,51,17.70
2009,04,03,14,52,17.70
2009,04,03,14,53,14.50
2009,04,03,14,54,12.90
2009,04,03,14,55,14.50
2009,04,03,14,56,20.90
2009,04,03,14,57,14.50
2009,04,03,14,58,14.50
2009,04,03,14,59,14.50
2009,04,03,15,00,14.50
2009,04,03,15,01,16.10
2009,04,03,15,02,16.10
2009,04,03,15,03,11.30
2009,04,03,15,04,19.30
2009,04,03,15,05,17.70
2009,04,03,15,06,11.30
2009,04,03,15,07,16.10
2009,04,03,15,08,16.10
2009,04,03,15,09,16.10
2009,04,03,15,10,17.70
2009,04,03,15,11,14.50
2009,04,03,15,12,11.30
2009,04,03,15,13,11.30
2009,04,03,15,14,14.50
2009,04,03,15,15,19.30
2009,04,03,15,16,17.70
2009,04,03,15,17,8.10
2009,04,03,15,18,20.90
2009,04,03,15,19,16.10
2009,04,03,15,20,19.30
2009,04,03,15,21,16.10
2009,04,03,15,22,11.30
2009,04,03,15,23,19.30
2009,04,03,15,24,16.10
2009,04,03,15,25,14.50
2009,04,03,15,26,19.30
2009,04,03,15,27,17.70
2009,04,03,15,28,19.30
2009,04,03,15,29,19.30
2009,04,03,15,30,9.60
2009,04,03,15,31,14.50
2009,04,03,15,32,16.10
2009,04,03,15,33,11.30
2009,04,03,15,34,11.30
2009,04,03,15,35,11.30
2009,04,03,15,36,14.50
2009,04,03,15,37,8.10
2009,04,03,15,38,17.70
2009,04,03,15,39,14.50
2009,04,03,15,40,19.30
2009,04,03,15,41,17.70
2009,04,03,15,42,14.50
2009,04,03,15,43,14.50
2009,04,03,15,44,9.60
2009,04,03,15,45,11.30
2009,04,03,15,46,16.10
2009,04,03,15,47,14.50
2009,04,03,15,48,16.10
2009,04,03,15,49,8.10
2009,04,03,15,50,9.60
2009,04,03,15,51,11.30
2009,04,03,15,52,11.30
2009,04,03,15,53,19.30
2009,04,03,15,54,12.90
2009,04,03,15,55,16.10
2009,04,03,15,56,4.80
2009,04,03,15,57,11.30
2009,04,03,15,58,16.10
2009,04,03,15,59,16.10
2009,04,03,16,00,12.90
2009,04,03,16,01,11.30
2009,04,03,16,02,19.30
2009,04,03,16,03,12.90
2009,04,03,16,04,16.10
2009,04,03,16,05,11.30
2009,04,03,16,06,14.50
2009,04,03,16,07,17.70
2009,04,03,16,08,14.50
2009,04,03,16,09,16.10
2009,04,03,16,10,9.60
2009,04,03,16,11,14.50
2009,04,03,16,12,8.10
2009,04,03,16,13,11.30
2009,04,03,16,14,16.10
2009,04,03,16,15,9.60
2009,04,03,16,16,12.90
2009,04,03,16,17,14.50
2009,04,03,16,18,8.10
2009,04,03,16,19,6.40
2009,04,03,16,20,4.80
2009,04,03,16,21,6.40
2009,04,03,16,22,6.40
2009,04,03,16,23,8.10
2009,04,03,16,24,9.60
2009,04,03,16,25,6.40
2009,04,03,16,26,11.30
2009,04,03,16,27,8.10
2009,04,03,16,28,16.10
2009,04,03,16,29,8.10
2009,04,03,16,30,8.10
2009,04,03,16,31,8.10
2009,04,03,16,32,9.60
2009,04,03,16,33,9.60
2009,04,03,16,34,8.10
2009,04,03,16,35,6.40
2009,04,03,16,36,6.40
2009,04,03,16,37,9.60
2009,04,03,16,38,9.60
2009,04,03,16,39,9.60
2009,04,03,16,40,11.30
2009,04,03,16,41,11.30
2009,04,03,16,42,8.10
2009,04,03,16,43,8.10
2009,04,03,16,44,6.40
2009,04,03,16,45,6.40
2009,04,03,16,46,6.40
2009,04,03,16,47,9.60
2009,04,03,16,48,11.30
2009,04,03,16,49,6.40
2009,04,03,16,50,6.40
2009,04,03,16,51,8.10
2009,04,03,16,52,9.60
2009,04,03,16,53,6.40
2009,04,03,16,54,9.60
2009,04,03,16,55,11.30
2009,04,03,16,56,6.40
2009,04,03,16,57,4.80
2009,04,03,16,58,4.80
2009,04,03,16,59,6.40
2009,04,03,17,00,6.40
2009,04,03,17,01,6.40
2009,04,03,17,02,3.20
2009,04,03,17,03,8.10
2009,04,03,17,04,11.30
2009,04,03,17,05,11.30
2009,04,03,17,06,6.40
2009,04,03,17,07,11.30
2009,04,03,17,08,9.60
2009,04,03,17,09,11.30
2009,04,03,17,10,11.30
2009,04,03,17,11,8.10
2009,04,03,17,12,6.40
2009,04,03,17,13,6.40
2009,04,03,17,14,8.10
2009,04,03,17,15,8.10
2009,04,03,17,16,8.10
2009,04,03,17,17,11.30
2009,04,03,17,18,9.60
2009,04,03,17,19,11.30
2009,04,03,17,20,11.30
2009,04,03,17,21,8.10
2009,04,03,17,22,4.80
2009,04,03,17,23,6.40
2009,04,03,17,24,6.40